Find OneWeb SL0598

NORAD ID: 55154 Int'l Des: 2023-004 Owner: ONEWEBN Country: UK Constellation: oneweb operational
LEOCIRCULARPOLARONEWEB_TYPE

リアルタイム位置

3D地球を読み込み中...

OneWeb SL0598について

説明を読み込み中...

次回通過

Passes for default location (London). Set your location on the main map for personalized predictions.

高度履歴

Loading altitude history...

軌道要素

1 55154U 23004Q 26127.26520665 .00000306 00000-0 82802-3 0 9991
2 55154 87.8920 29.2073 0001460 53.3217 306.8045 13.11414924160532
Epoch: May 7, 2026 • Age: 13 hours

現在のステータス

高度 1222.1 km
速度 7.24 km/s
衛星直下点 -10.65°S, 123.86°W
打ち上げ日 Jan 10, 2023
運用期間 3.3 years
タイプ internet

技術仕様

分類 Payload
質量 148.00 kg
乾燥質量 140.00 kg
総質量 148.00 kg
長さ 1.30 m
直径 1.00 m
スパン 5.00 m
形状 Trapezoid+2 pan
製造者 ONEWUS
バスタイプ ARROW
フェーズステータス In Orbit
所有者/国 ONEWEBN/UK

Most Searched